Greybull, WY

4:37 AM MST on January 17, 2018 (GMT -0700)
South Big Horn County

Weather History for KGEY - June, 2013

Change the Weather History Date:

Sunday, June 16, 2013

  Actual Average Record
Temperature  
Mean Temperature 67 °F 66 °F  
Max Temperature 86 °F 81 °F 92 °F (2016)
Min Temperature 48 °F 52 °F 45 °F (2000)
Degree Days  
Heating Degree Days 0 2  
Month to date heating degree days 32 55  
Since 1 June heating degree days 32 55  
Since 1 July heating degree days 7651 7735  
Cooling Degree Days 2 3  
Month to date cooling degree days 47 39  
Year to date cooling degree days 74 59  
Since 1 June cooling degree days 47 39  
Growing Degree Days 16 (Base 50)    
Moisture  
Dew Point 34 °F    
Average Humidity 35    
Maximum Humidity 61    
Minimum Humidity 9    
Precipitation  
Precipitation 0.00 in 0.03 in 0.26 in (2011)
Month to date precipitation 0.38 0.89  
Year to date precipitation 2.28 4.06  
Sea Level Pressure  
Sea Level Pressure 29.94 in    
Wind  
Wind Speed 6 mph (NNW)    
Max Wind Speed 24 mph    
Max Gust Speed 30 mph    
Visibility 10 miles    
Events      
T = Trace of Precipitation, MM = Missing Value Source: NWS Daily Summary

Daily Weather History Graph

Daily Weather History Graph

Search for Another Location

Airport or City:

Trip Planner

Search our weather history database for the weather conditions in past years. The results will help you decide how hot, cold, wet, or windy it might be!

Date:

Astronomy

Jun. 16, 2013 Rise Set
Actual Time 5:26 AM MDT 8:59 PM MDT
Civil Twilight 4:50 AM MDT 9:36 PM MDT
Nautical Twilight 4:01 AM MDT 10:25 PM MDT
Astronomical Twilight 2:58 AM MDT 11:28 PM MDT
Moon 1:23 PM MDT (6/16) 12:49 AM MDT (6/16)
Length of Visible Light 16h 46m
Length of Day
15h 32m
Waxing Crescent, 50% of the Moon is Illuminated
Jun 16
Waxing Crescent
Jun 23
Full
Jun 29
Last Quarter
Jul 8
New
Jul 15
First Quarter

Hourly Weather History & Observations

Time (MDT) Temp. Dew Point Humidity Pressure Visibility Wind Dir Wind Speed Gust Speed Precip Events Conditions
12:53 AM 62.1 °F 37.9 °F 41% 29.90 in 10.0 mi WNW 5.8 mph - N/A   Clear
1:53 AM 55.0 °F 41.0 °F 59% 29.92 in 10.0 mi Variable 3.5 mph - N/A   Clear
2:53 AM 57.0 °F 37.0 °F 47% 29.91 in 10.0 mi WNW 3.5 mph - N/A   Clear
3:53 AM 55.9 °F 35.1 °F 45% 29.94 in 10.0 mi NNW 4.6 mph - N/A   Clear
4:53 AM 48.0 °F 35.1 °F 61% 29.97 in 10.0 mi ESE 5.8 mph - N/A   Clear
5:53 AM 48.9 °F 30.9 °F 50% 29.99 in 10.0 mi SE 5.8 mph - N/A   Clear
6:53 AM 54.0 °F 33.1 °F 45% 29.98 in 10.0 mi Calm Calm - N/A   Clear
7:53 AM 57.0 °F 32.0 °F 39% 29.99 in 10.0 mi Calm Calm - N/A   Clear
8:53 AM 62.1 °F 36.0 °F 38% 30.01 in 10.0 mi Variable 3.5 mph - N/A   Clear
9:53 AM 68.0 °F 36.0 °F 31% 29.99 in 10.0 mi Calm Calm - N/A   Clear
10:53 AM 71.1 °F 36.0 °F 28% 29.97 in 10.0 mi Calm Calm - N/A   Clear
11:53 AM 75.0 °F 36.0 °F 24% 29.96 in 10.0 mi East 5.8 mph - N/A   Clear
12:53 PM 79.0 °F 32.0 °F 18% 29.94 in 10.0 mi Calm Calm - N/A   Clear
1:53 PM 82.0 °F 24.1 °F 12% 29.92 in 10.0 mi Calm Calm - N/A   Clear
2:53 PM 82.9 °F 25.0 °F 12% 29.90 in 10.0 mi West 6.9 mph - N/A   Clear
3:53 PM 84.9 °F 19.0 °F 9% 29.89 in 10.0 mi Calm Calm - N/A   Clear
4:53 PM 84.9 °F 25.0 °F 11% 29.89 in 10.0 mi Variable 3.5 mph - N/A   Clear
5:53 PM 84.9 °F 30.0 °F 14% 29.89 in 10.0 mi North 15.0 mph 26.5 mph N/A   Clear
6:53 PM 82.0 °F 36.0 °F 19% 29.89 in 10.0 mi North 19.6 mph - N/A   Clear
7:53 PM 78.1 °F 42.1 °F 28% 29.91 in 10.0 mi NNW 18.4 mph - N/A   Clear
8:53 PM 75.0 °F 43.0 °F 32% 29.94 in 10.0 mi NNW 19.6 mph - N/A   Clear
9:53 PM 75.0 °F 36.0 °F 24% 29.94 in 10.0 mi NNW 11.5 mph - N/A   Clear
10:53 PM 70.0 °F 44.1 °F 39% 29.98 in 10.0 mi NNW 8.1 mph - N/A   Clear
11:53 PM 66.9 °F 45.0 °F 45% 29.99 in 10.0 mi WNW 5.8 mph - N/A   Clear